Vorticity
nan nan nan nan nan nan nan nan nan nan nan nan nan nan nan nan nan nan nan nan nan nan nan nan nan nan nan nan nan nan nan nan nan nan nan nan nan nan nan nan nan nan nan nan nan
nan 7 7 7 6 6 7 6 6 7 6 6 5 5 6 14 24 16 14 7 -4 7 6 4 3 7 6 4 8 1 -0 5 1 0 4 6 2 2 5 5 4 2 3 2 nan
nan 6 6 6 6 6 7 7 7 7 6 6 6 7 6 16 19 15 20 18 13 9 6 7 7 12 13 3 4 4 1 2 4 4 1 -1 1 6 8 7 5 12 8 13 nan
nan 6 6 6 6 6 6 6 7 7 7 7 6 6 15 18 9 5 8 15 16 10 8 7 7 12 14 15 3 3 9 3 5 4 2 3 4 3 5 5 4 4 7 16 nan
nan 6 6 7 7 7 8 7 7 7 7 7 7 9 18 9 2 -4 5 4 5 7 8 8 6 6 4 10 13 10 4 6 8 7 5 4 4 6 5 6 5 3 6 5 nan
nan 7 7 7 7 8 8 8 8 7 6 7 9 12 9 2 7 6 3 9 5 6 8 3 6 0 6 10 4 5 10 9 8 8 7 9 4 4 10 8 4 7 8 8 nan
nan 6 6 7 8 9 9 8 6 5 6 8 12 13 11 9 0 1 4 5 5 6 9 8 7 6 9 9 8 5 5 10 11 8 7 10 1 10 7 5 6 3 5 7 nan
nan 6 5 6 6 6 7 8 8 7 10 11 16 15 10 16 12 5 4 8 9 6 5 3 7 13 6 7 18 17 10 8 7 8 11 11 3 11 5 4 5 7 7 6 nan
nan 7 7 7 8 8 9 8 9 16 19 18 13 8 5 16 16 14 15 10 12 12 14 13 9 5 4 9 10 17 12 8 6 13 11 5 10 -0 3 7 8 11 10 9 nan
nan 8 7 7 8 10 12 21 28 28 20 11 -0 2 0 6 5 18 13 5 10 12 8 11 14 8 4 9 6 4 9 7 8 9 12 3 7 0 6 9 10 10 15 15 nan
nan 9 8 7 9 11 18 20 21 17 6 -3 7 -5 -5 -2 5 16 5 3 5 8 11 8 8 14 6 -3 0 5 6 4 14 7 6 9 13 11 13 15 15 15 13 12 nan
nan 7 9 9 11 19 20 4 6 9 7 8 11 7 7 0 4 -3 3 9 9 6 6 11 9 7 8 9 7 3 3 6 7 12 7 11 14 13 10 12 13 9 7 9 nan
nan 7 8 13 23 23 7 -0 9 17 14 20 28 27 18 9 7 7 6 9 4 5 7 5 12 12 9 5 10 8 8 6 2 2 6 10 9 10 12 8 5 9 8 7 nan
nan 8 8 20 22 10 8 8 11 14 9 9 18 25 28 18 14 18 18 12 7 7 8 4 9 12 13 10 8 5 13 8 6 7 12 6 12 15 14 12 10 9 8 8 nan
nan 8 14 23 14 3 5 9 15 15 4 5 12 3 9 17 8 26 30 12 11 10 8 3 8 12 8 14 10 8 7 7 10 11 8 6 10 13 9 9 10 12 10 10 nan
nan 6 20 25 10 2 2 11 14 9 4 5 11 11 12 10 5 15 16 12 13 7 3 13 10 5 7 9 8 13 13 13 9 11 12 19 6 1 6 7 5 8 8 16 nan
nan 11 20 14 6 8 9 13 10 8 4 0 3 12 10 13 21 18 9 7 7 9 7 9 17 17 8 5 14 17 11 13 14 14 10 7 6 12 9 8 7 2 12 20 nan
nan 30 26 9 7 9 12 10 4 -1 2 7 9 15 11 7 9 11 16 20 18 15 8 11 12 10 16 13 7 12 7 8 6 3 9 9 11 10 3 4 11 8 15 10 nan
nan 31 13 12 9 9 11 11 5 -1 1 11 13 13 3 10 13 6 10 15 15 23 14 12 10 2 4 22 16 7 14 7 1 4 14 15 7 9 14 10 13 19 14 9 nan
nan 13 13 11 8 9 9 4 -4 8 7 10 15 7 1 10 12 12 3 5 9 5 22 13 12 6 5 13 20 18 8 14 15 9 6 9 11 14 22 19 11 20 12 9 nan
nan 10 13 7 4 8 9 -3 5 9 11 9 8 8 10 7 7 9 11 3 8 4 6 13 16 9 13 11 5 14 8 3 11 9 9 8 11 14 18 21 16 13 12 7 nan
nan 13 9 9 7 7 -2 2 12 3 12 10 15 14 10 8 13 13 12 11 8 9 6 13 8 14 13 8 9 8 17 15 12 5 1 9 1 12 20 15 20 17 8 11 nan
nan 13 10 7 8 6 2 6 6 12 15 8 4 13 16 15 12 12 8 12 12 6 6 13 9 10 15 17 15 9 18 15 1 16 10 1 2 4 10 15 15 11 10 10 nan
nan 10 12 6 6 4 10 6 8 11 6 10 18 14 1 8 6 12 10 11 13 5 10 9 10 6 1 -1 9 1 5 22 14 5 13 7 8 6 12 12 10 9 11 9 nan
nan 8 9 4 3 5 13 10 5 11 11 13 13 -2 6 10 13 10 7 13 13 12 10 6 9 7 1 6 13 2 1 2 12 18 12 1 7 15 14 15 13 9 9 9 nan
nan 10 8 8 5 11 13 9 4 10 15 6 7 8 15 10 4 6 12 11 8 13 9 3 6 9 16 25 13 10 9 11 10 13 14 10 4 5 19 25 15 10 9 9 nan
nan nan nan nan nan nan nan nan nan nan nan nan nan nan nan nan nan nan nan nan nan nan nan nan nan nan nan nan nan nan nan nan nan nan nan nan nan nan nan nan nan nan nan nan nan
CAPE
6 8 12 4 13 13 9 8 4 3 1 1 0 0 1 2 2 0 0 0 0 0 0 0 0 0 0 0 0 0 0 0 0 0 0 0 0 0 0 0 0 0 0 0 0
11 11 10 12 14 15 15 11 6 5 3 2 1 0 1 2 0 0 0 0 0 0 0 0 0 0 0 0 1 9 0 0 0 0 0 0 0 0 0 0 0 0 0 0 0
9 12 15 15 16 8 12 11 13 10 7 6 2 1 2 0 0 0 0 0 0 0 0 0 0 0 0 0 0 0 0 0 0 0 0 0 0 0 0 0 0 0 0 0 0
9 10 8 7 6 6 7 9 7 5 11 6 2 1 0 0 0 0 0 0 0 0 0 0 0 0 0 0 0 0 0 0 0 0 0 0 0 0 0 0 0 0 0 0 0
22 10 3 2 1 1 2 2 3 2 1 2 4 6 0 0 0 0 0 0 0 0 0 0 0 0 0 0 0 0 0 0 0 0 0 0 0 0 0 0 0 0 0 0 0
19 12 6 5 2 2 3 1 0 0 0 2 4 12 8 1 0 0 0 0 0 0 0 0 0 0 0 0 0 0 0 0 0 0 0 0 0 0 0 0 0 0 0 0 0
12 3 0 0 0 0 2 3 2 3 1 1 7 13 7 0 0 0 0 0 0 0 0 0 0 0 0 0 0 0 0 0 0 0 0 0 0 0 0 0 0 0 0 0 0
21 15 2 1 0 0 0 0 0 2 3 0 6 10 1 0 0 0 0 0 0 0 0 0 0 0 0 0 0 0 0 0 0 0 0 0 0 0 0 0 0 0 0 0 0
18 12 6 3 3 2 7 4 2 0 0 0 1 0 0 0 0 0 0 0 0 0 0 0 0 0 0 0 0 0 0 0 0 0 0 0 0 0 0 0 0 0 0 0 0
15 10 8 6 5 6 6 0 0 0 0 0 0 6 0 0 0 0 0 0 0 0 0 0 0 0 0 0 0 0 0 0 0 0 0 0 0 0 0 0 0 0 0 0 0
5 9 11 13 10 6 2 0 0 0 7 4 0 3 0 0 3 0 0 0 0 0 0 0 0 0 0 0 0 0 0 0 0 0 0 0 0 0 0 0 0 0 0 0 0
3 3 6 9 8 1 0 0 1 0 0 0 0 0 0 0 0 0 0 0 0 0 0 0 0 0 0 0 0 0 0 0 0 0 0 0 0 0 0 0 0 0 0 0 0
3 3 9 8 1 0 0 0 0 0 0 0 0 0 0 0 0 0 0 0 0 0 0 0 0 0 0 0 0 0 0 0 0 0 0 0 0 0 0 0 0 0 0 0 0
4 3 8 2 0 0 0 0 2 3 0 0 59 0 0 0 0 0 0 0 0 0 0 0 0 0 0 0 0 0 0 0 0 0 0 0 0 0 0 0 0 0 0 0 0
3 3 5 0 0 0 0 0 0 6 8 15 0 25 1 1 0 1 0 0 0 0 0 0 0 0 0 0 0 0 0 0 0 0 0 0 0 0 0 0 0 0 0 0 0
2 3 3 0 0 0 0 0 0 3 8 45 0 0 0 0 0 0 0 1 2 0 0 0 0 0 0 0 0 0 0 0 0 0 0 0 0 0 0 0 0 0 0 0 16
2 0 1 0 0 0 0 0 10 3 25 15 5 15 27 7 20 1 2 3 21 59 0 5 9 0 0 0 0 0 0 0 0 0 0 0 0 0 0 0 0 0 0 56 405
2 0 0 0 0 0 0 0 0 21 22 0 1 21 21 1 2 4 0 0 10 51 0 3 0 0 0 0 0 0 0 0 0 0 0 0 0 0 0 0 0 0 0 425 544
0 0 0 0 0 0 0 5 18 37 34 37 0 0 0 0 0 0 4 33 34 55 47 52 2 0 0 0 0 0 0 0 0 0 0 0 0 0 0 0 0 0 7 397 486
1 0 0 0 0 0 0 18 86 23 22 23 54 27 3 0 3 23 4 117 42 47 37 16 0 0 0 0 0 0 0 0 0 0 0 0 0 0 0 0 0 0 239 344 441
0 0 0 0 0 37 19 0 8 6 43 57 90 55 39 50 18 6 51 78 0 18 0 7 1 0 0 0 0 0 0 0 0 0 0 0 0 0 0 0 0 0 364 320 475
0 2 0 0 1 19 6 0 15 34 130 147 148 37 55 0 12 1 15 47 4 0 0 0 19 4 0 0 0 0 0 0 0 0 0 0 0 0 1 0 52 167 348 432 497
1 3 10 1 6 12 8 0 14 103 66 68 60 97 0 44 19 90 20 44 2 2 41 4 4 9 0 1 8 4 0 0 0 0 0 0 0 0 1 34 467 506 521 516 467
0 7 3 5 1 6 0 0 5 44 3 2 4 0 0 3 4 30 70 35 0 0 37 5 0 2 0 18 0 5 0 0 0 0 0 0 0 0 16 70 455 511 507 461 438
2 0 2 0 0 0 8 12 15 22 66 26 20 14 29 12 1 0 25 51 51 31 20 0 68 6 0 1 0 3 1 0 0 0 0 0 0 0 200 424 511 473 427 390 428
10 14 4 0 0 2 20 11 39 44 19 45 13 20 38 23 24 0 8 0 17 20 62 5 16 45 10 2 7 0 0 0 0 0 0 0 0 0 252 490 467 475 392 469 492
0 0 19 1 1 5 11 25 32 10 30 34 35 5 44 29 58 4 1 0 0 2 0 26 9 20 10 5 0 0 0 0 0 0 0 0 17 96 71 67 174 271 357 426 436